Location: Unspecified
(0.0000°N, 0.0000°E)
Time: 08:22:04
(UTC+00:00)

N. Korean satellite - Pass Details

Date: 13 February 2018
Orbit: 459 x 514 km, 97.2° (Epoch: 23 February)

Event Time Altitude Azimuth Distance (km) Brightness Sun altitude
Rises 18:54:56 0° 194° (SSW) 2,521 10.6 -9.9°
Reaches altitude 10° 18:57:26 10° 212° (SSW) 1,631 9.9 -10.5°
Maximum altitude 18:59:57 19° 258° (WSW) 1,175 9.7 -11.1°
Drops below altitude 10° 19:02:27 10° 305° (NW) 1,608 9.8 -11.7°
Sets 19:04:54 0° 324° (NW) 2,473 10.5 -12.3°
